contact:dominique.lefevre@mio.osupytheas.fr, maurice.libes@osupytheas.fr, didier.mallarino@osupytheas.fr
Project:EMSO http://www.emso-fr.org/EMSO-France
Depth: 2436.0 m
Title:EMSO Ligure Ouest : Data MII capteur CSTAR
DateTime,Latitude,Longitude,Instrument_Serial,Reference_Counts,Signal_Counts,Corrected_Signal_raw_counts,Calculated_Beam_c_inverse_meters,Internal_thermistor_counts
DateTime,Latitude,Longitude,Instrument_Serial,Reference_Counts,Signal_Counts,Corrected_Signal_raw_counts,Calculated_Beam_c_inverse_meters,Internal_thermistor_counts
2023-09-01T00:00:44,42.805,6.029,CST-1368DR,4185,4601,11658,01.169,552
2023-09-01T00:03:46,42.805,6.029,CST-1368DR,4185,4601,11659,01.169,553
2023-09-01T00:06:47,42.805,6.029,CST-1368DR,4185,4601,11659,01.169,552
2023-09-01T00:09:49,42.805,6.029,CST-1368DR,4185,4599,11654,01.171,552
2023-09-01T00:12:50,42.805,6.029,CST-1368DR,4185,4600,11656,01.170,552
2023-09-01T00:15:52,42.805,6.029,CST-1368DR,4185,4601,11659,01.169,553
2023-09-01T00:18:54,42.805,6.029,CST-1368DR,4185,4601,11659,01.169,552
2023-09-01T00:21:55,42.805,6.029,CST-1368DR,4185,4600,11657,01.170,553
2023-09-01T00:24:57,42.805,6.029,CST-1368DR,4185,4599,11654,01.171,553
2023-09-01T00:27:58,42.805,6.029,CST-1368DR,4185,4600,11656,01.170,553
2023-09-01T00:31:00,42.805,6.029,CST-1368DR,4185,4600,11657,01.170,552
2023-09-01T00:34:01,42.805,6.029,CST-1368DR,4185,4599,11654,01.171,553
2023-09-01T00:37:03,42.805,6.029,CST-1368DR,4185,4599,11655,01.170,553
2023-09-01T00:40:05,42.805,6.029,CST-1368DR,4185,4599,11655,01.170,552
2023-09-01T00:43:06,42.805,6.029,CST-1368DR,4185,4601,11658,01.169,552
2023-09-01T00:46:08,42.805,6.029,CST-1368DR,4185,4600,11657,01.170,553
2023-09-01T00:49:09,42.805,6.029,CST-1368DR,4185,4600,11657,01.170,552
2023-09-01T00:52:11,42.805,6.029,CST-1368DR,4185,4599,11655,01.170,552
2023-09-01T00:55:13,42.805,6.029,CST-1368DR,4185,4600,11657,01.170,552
2023-09-01T00:58:14,42.805,6.029,CST-1368DR,4185,4599,11655,01.170,552
2023-09-01T01:01:16,42.805,6.029,CST-1368DR,4185,4600,11657,01.170,552
2023-09-01T01:04:17,42.805,6.029,CST-1368DR,4185,4599,11654,01.171,553
2023-09-01T01:07:19,42.805,6.029,CST-1368DR,4185,4599,11654,01.171,552
2023-09-01T01:10:20,42.805,6.029,CST-1368DR,4185,4600,11656,01.170,552
2023-09-01T01:13:22,42.805,6.029,CST-1368DR,4185,4597,11649,01.172,553
2023-09-01T01:16:24,42.805,6.029,CST-1368DR,4185,4599,11654,01.171,553
2023-09-01T01:19:25,42.805,6.029,CST-1368DR,4184,4599,11658,01.169,552
2023-09-01T01:22:27,42.805,6.029,CST-1368DR,4185,4601,11658,01.169,552
2023-09-01T01:25:28,42.805,6.029,CST-1368DR,4185,4600,11656,01.170,553
2023-09-01T01:28:30,42.805,6.029,CST-1368DR,4185,4600,11657,01.170,552
2023-09-01T01:31:31,42.805,6.029,CST-1368DR,4185,4600,11656,01.170,552
2023-09-01T01:34:33,42.805,6.029,CST-1368DR,4185,4601,11659,01.169,552
2023-09-01T01:37:35,42.805,6.029,CST-1368DR,4185,4601,11659,01.169,553
2023-09-01T01:40:36,42.805,6.029,CST-1368DR,4185,4601,11658,01.169,552
2023-09-01T01:43:38,42.805,6.029,CST-1368DR,4185,4600,11657,01.170,552
2023-09-01T01:46:39,42.805,6.029,CST-1368DR,4185,4599,11654,01.171,552
2023-09-01T01:49:41,42.805,6.029,CST-1368DR,4185,4600,11657,01.170,553
2023-09-01T01:52:43,42.805,6.029,CST-1368DR,4185,4601,11659,01.169,553
2023-09-01T01:55:44,42.805,6.029,CST-1368DR,4185,4601,11658,01.169,553
2023-09-01T01:58:46,42.805,6.029,CST-1368DR,4184,4600,11660,01.169,552
2023-09-01T02:01:47,42.805,6.029,CST-1368DR,4184,4600,11659,01.169,553
2023-09-01T02:04:49,42.805,6.029,CST-1368DR,4185,4601,11659,01.169,552
2023-09-01T02:07:50,42.805,6.029,CST-1368DR,4185,4600,11657,01.170,553
2023-09-01T02:10:52,42.805,6.029,CST-1368DR,4184,4599,11657,01.170,553
2023-09-01T02:13:54,42.805,6.029,CST-1368DR,4184,4600,11659,01.169,552
2023-09-01T02:16:55,42.805,6.029,CST-1368DR,4184,4600,11660,01.169,552
2023-09-01T02:19:57,42.805,6.029,CST-1368DR,4184,4601,11661,01.168,553
2023-09-01T02:22:58,42.805,6.029,CST-1368DR,4185,4601,11658,01.169,552
2023-09-01T02:26:00,42.805,6.029,CST-1368DR,4185,4601,11658,01.169,552
2023-09-01T02:29:02,42.805,6.029,CST-1368DR,4185,4601,11659,01.169,552
2023-09-01T02:32:03,42.805,6.029,CST-1368DR,4185,4602,11661,01.168,552
2023-09-01T02:35:05,42.805,6.029,CST-1368DR,4185,4601,11659,01.169,552
2023-09-01T02:38:06,42.805,6.029,CST-1368DR,4185,4601,11658,01.169,553
2023-09-01T02:41:08,42.805,6.029,CST-1368DR,4185,4600,11657,01.170,552
2023-09-01T02:44:09,42.805,6.029,CST-1368DR,4184,4601,11663,01.167,552
2023-09-01T02:47:11,42.805,6.029,CST-1368DR,4185,4601,11658,01.169,553
2023-09-01T02:50:13,42.805,6.029,CST-1368DR,4185,4601,11659,01.169,553
2023-09-01T02:53:14,42.805,6.029,CST-1368DR,4185,4601,11660,01.169,553
2023-09-01T02:56:16,42.805,6.029,CST-1368DR,4185,4601,11659,01.169,553
2023-09-01T02:59:17,42.805,6.029,CST-1368DR,4184,4601,11663,01.167,553
2023-09-01T03:02:19,42.805,6.029,CST-1368DR,4184,4600,11660,01.169,552
2023-09-01T03:05:20,42.805,6.029,CST-1368DR,4184,4601,11661,01.168,552
2023-09-01T03:08:22,42.805,6.029,CST-1368DR,4184,4600,11659,01.169,553
2023-09-01T03:11:24,42.805,6.029,CST-1368DR,4185,4601,11659,01.169,552
2023-09-01T03:14:25,42.805,6.029,CST-1368DR,4185,4601,11658,01.169,552
2023-09-01T03:17:27,42.805,6.029,CST-1368DR,4185,4600,11656,01.170,552
2023-09-01T03:20:28,42.805,6.029,CST-1368DR,4184,4601,11663,01.167,553
2023-09-01T03:23:30,42.805,6.029,CST-1368DR,4184,4601,11661,01.168,553
2023-09-01T03:26:32,42.805,6.029,CST-1368DR,4184,4601,11661,01.168,553
2023-09-01T03:29:33,42.805,6.029,CST-1368DR,4185,4601,11658,01.169,553
2023-09-01T03:32:35,42.805,6.029,CST-1368DR,4185,4601,11658,01.169,553
2023-09-01T03:35:36,42.805,6.029,CST-1368DR,4184,4600,11660,01.169,553
2023-09-01T03:38:38,42.805,6.029,CST-1368DR,4184,4600,11659,01.169,553
2023-09-01T03:41:39,42.805,6.029,CST-1368DR,4185,4599,11654,01.171,552
2023-09-01T03:44:41,42.805,6.029,CST-1368DR,4185,4600,11657,01.170,552
2023-09-01T03:47:43,42.805,6.029,CST-1368DR,4184,4600,11659,01.169,553
2023-09-01T03:50:44,42.805,6.029,CST-1368DR,4184,4600,11660,01.169,552
2023-09-01T03:53:46,42.805,6.029,CST-1368DR,4185,4600,11657,01.170,553
2023-09-01T03:56:47,42.805,6.029,CST-1368DR,4184,4598,11654,01.171,552
2023-09-01T03:59:49,42.805,6.029,CST-1368DR,4184,4600,11659,01.169,553
2023-09-01T04:02:50,42.805,6.029,CST-1368DR,4185,4599,11653,01.171,552
2023-09-01T04:05:52,42.805,6.029,CST-1368DR,4184,4598,11655,01.170,552
2023-09-01T04:08:54,42.805,6.029,CST-1368DR,4184,4600,11659,01.169,553
2023-09-01T04:11:55,42.805,6.029,CST-1368DR,4184,4599,11658,01.169,553
2023-09-01T04:14:57,42.805,6.029,CST-1368DR,4185,4599,11655,01.170,552
2023-09-01T04:17:58,42.805,6.029,CST-1368DR,4184,4599,11657,01.170,553
2023-09-01T04:21:00,42.805,6.029,CST-1368DR,4185,4600,11656,01.170,552
2023-09-01T04:24:02,42.805,6.029,CST-1368DR,4184,4600,11659,01.169,553
2023-09-01T04:27:03,42.805,6.029,CST-1368DR,4184,4599,11656,01.170,552
2023-09-01T04:30:05,42.805,6.029,CST-1368DR,4185,4600,11656,01.170,552
2023-09-01T04:33:07,42.805,6.029,CST-1368DR,4184,4599,11658,01.169,552
2023-09-01T04:36:09,42.805,6.029,CST-1368DR,4184,4599,11657,01.170,552
2023-09-01T04:39:10,42.805,6.029,CST-1368DR,4184,4599,11658,01.169,552
2023-09-01T04:42:12,42.805,6.029,CST-1368DR,4184,4601,11661,01.168,552
2023-09-01T04:45:13,42.805,6.029,CST-1368DR,4184,4600,11659,01.169,552
2023-09-01T04:48:15,42.805,6.029,CST-1368DR,4184,4600,11660,01.169,553
2023-09-01T04:51:16,42.805,6.029,CST-1368DR,4184,4599,11656,01.170,553
2023-09-01T04:54:18,42.805,6.029,CST-1368DR,4184,4599,11657,01.170,552
2023-09-01T04:57:20,42.805,6.029,CST-1368DR,4184,4600,11659,01.169,552
2023-09-01T05:00:21,42.805,6.029,CST-1368DR,4184,4600,11659,01.169,553
2023-09-01T05:03:23,42.805,6.029,CST-1368DR,4184,4598,11655,01.170,552
2023-09-01T05:06:24,42.805,6.029,CST-1368DR,4184,4600,11659,01.169,552
2023-09-01T05:09:26,42.805,6.029,CST-1368DR,4184,4599,11657,01.170,552
2023-09-01T05:12:27,42.805,6.029,CST-1368DR,4184,4599,11657,01.170,552
2023-09-01T05:15:29,42.805,6.029,CST-1368DR,4184,4601,11661,01.168,552
2023-09-01T05:18:31,42.805,6.029,CST-1368DR,4184,4601,11661,01.168,552
2023-09-01T05:21:32,42.805,6.029,CST-1368DR,4184,4601,11661,01.168,552
2023-09-01T05:24:34,42.805,6.029,CST-1368DR,4184,4600,11660,01.169,552
2023-09-01T05:27:35,42.805,6.029,CST-1368DR,4184,4600,11659,01.169,552
2023-09-01T05:30:37,42.805,6.029,CST-1368DR,4184,4601,11661,01.168,553
2023-09-01T05:33:39,42.805,6.029,CST-1368DR,4184,4599,11656,01.170,552
2023-09-01T05:36:40,42.805,6.029,CST-1368DR,4184,4600,11660,01.169,552
2023-09-01T05:39:42,42.805,6.029,CST-1368DR,4184,4601,11662,01.168,553
2023-09-01T05:42:43,42.805,6.029,CST-1368DR,4184,4601,11661,01.168,553
2023-09-01T05:45:45,42.805,6.029,CST-1368DR,4184,4601,11661,01.168,552
2023-09-01T05:48:46,42.805,6.029,CST-1368DR,4184,4600,11659,01.169,553
2023-09-01T05:51:48,42.805,6.029,CST-1368DR,4184,4601,11661,01.168,552
2023-09-01T05:54:50,42.805,6.029,CST-1368DR,4184,4600,11660,01.169,552
2023-09-01T05:57:51,42.805,6.029,CST-1368DR,4184,4601,11663,01.167,553
2023-09-01T06:00:53,42.805,6.029,CST-1368DR,4184,4601,11661,01.168,553
2023-09-01T06:03:54,42.805,6.029,CST-1368DR,4184,4600,11659,01.169,553
2023-09-01T06:06:56,42.805,6.029,CST-1368DR,4184,4601,11661,01.168,553
2023-09-01T06:09:58,42.805,6.029,CST-1368DR,4184,4601,11661,01.168,552
2023-09-01T06:12:59,42.805,6.029,CST-1368DR,4184,4597,11651,01.172,552
2023-09-01T06:16:01,42.805,6.029,CST-1368DR,4184,4601,11662,01.168,552
2023-09-01T06:19:02,42.805,6.029,CST-1368DR,4184,4600,11659,01.169,552
2023-09-01T06:22:04,42.805,6.029,CST-1368DR,4184,4600,11659,01.169,553
2023-09-01T06:25:05,42.805,6.029,CST-1368DR,4184,4601,11661,01.168,552
2023-09-01T06:28:07,42.805,6.029,CST-1368DR,4184,4601,11662,01.168,552
2023-09-01T06:31:09,42.805,6.029,CST-1368DR,4184,4601,11661,01.168,553
2023-09-01T06:34:10,42.805,6.029,CST-1368DR,4184,4602,11663,01.167,552
2023-09-01T06:37:12,42.805,6.029,CST-1368DR,4184,4601,11661,01.168,553
2023-09-01T06:40:13,42.805,6.029,CST-1368DR,4184,4601,11661,01.168,552
2023-09-01T06:43:15,42.805,6.029,CST-1368DR,4184,4601,11662,01.168,552
2023-09-01T06:46:16,42.805,6.029,CST-1368DR,4184,4601,11662,01.168,553
2023-09-01T06:49:18,42.805,6.029,CST-1368DR,4184,4601,11663,01.167,552
2023-09-01T06:52:20,42.805,6.029,CST-1368DR,4184,4600,11660,01.169,552
2023-09-01T06:55:21,42.805,6.029,CST-1368DR,4184,4595,11647,01.173,552
2023-09-01T06:58:23,42.805,6.029,CST-1368DR,4184,4601,11662,01.168,553
2023-09-01T07:01:24,42.805,6.029,CST-1368DR,4184,4600,11659,01.169,552
2023-09-01T07:04:26,42.805,6.029,CST-1368DR,4184,4601,11661,01.168,553
2023-09-01T07:07:28,42.805,6.029,CST-1368DR,4184,4601,11661,01.168,552
2023-09-01T07:10:29,42.805,6.029,CST-1368DR,4184,4601,11662,01.168,552
2023-09-01T07:13:31,42.805,6.029,CST-1368DR,4184,4601,11662,01.168,553
2023-09-01T07:16:32,42.805,6.029,CST-1368DR,4184,4601,11662,01.168,553
2023-09-01T07:19:34,42.805,6.029,CST-1368DR,4184,4601,11661,01.168,553
2023-09-01T07:22:35,42.805,6.029,CST-1368DR,4184,4602,11664,01.167,553
2023-09-01T07:25:37,42.805,6.029,CST-1368DR,4184,4599,11656,01.170,553
2023-09-01T07:28:39,42.805,6.029,CST-1368DR,4184,4600,11659,01.169,552
2023-09-01T07:31:40,42.805,6.029,CST-1368DR,4184,4601,11662,01.168,553
2023-09-01T07:34:42,42.805,6.029,CST-1368DR,4184,4602,11664,01.167,552
2023-09-01T07:37:43,42.805,6.029,CST-1368DR,4184,4601,11663,01.167,552
2023-09-01T07:40:45,42.805,6.029,CST-1368DR,4184,4601,11663,01.167,552
2023-09-01T07:43:46,42.805,6.029,CST-1368DR,4184,4602,11664,01.167,553
2023-09-01T07:46:48,42.805,6.029,CST-1368DR,4184,4601,11661,01.168,553
2023-09-01T07:49:50,42.805,6.029,CST-1368DR,4184,4602,11663,01.167,553
2023-09-01T07:52:51,42.805,6.029,CST-1368DR,4184,4600,11659,01.169,552
2023-09-01T07:55:53,42.805,6.029,CST-1368DR,4184,4598,11655,01.170,552
2023-09-01T07:58:54,42.805,6.029,CST-1368DR,4184,4601,11662,01.168,553
2023-09-01T08:01:56,42.805,6.029,CST-1368DR,4184,4602,11664,01.167,552
2023-09-01T08:04:58,42.805,6.029,CST-1368DR,4184,4599,11656,01.170,553
2023-09-01T08:07:59,42.805,6.029,CST-1368DR,4184,4601,11662,01.168,552
2023-09-01T08:11:01,42.805,6.029,CST-1368DR,4184,4601,11661,01.168,553
2023-09-01T08:14:02,42.805,6.029,CST-1368DR,4184,4600,11659,01.169,553
2023-09-01T08:17:04,42.805,6.029,CST-1368DR,4184,4600,11660,01.169,552
2023-09-01T08:20:05,42.805,6.029,CST-1368DR,4184,4600,11659,01.169,553
2023-09-01T08:23:07,42.805,6.029,CST-1368DR,4184,4603,11667,01.166,552
2023-09-01T08:26:09,42.805,6.029,CST-1368DR,4184,4601,11661,01.168,552
2023-09-01T08:29:10,42.805,6.029,CST-1368DR,4184,4585,11620,01.182,552
2023-09-01T08:32:13,42.805,6.029,CST-1368DR,4184,4579,11605,01.187,552
2023-09-01T08:35:15,42.805,6.029,CST-1368DR,4184,4582,11614,01.184,552
2023-09-01T08:38:17,42.805,6.029,CST-1368DR,4184,4587,11626,01.180,552
2023-09-01T08:41:18,42.805,6.029,CST-1368DR,4184,4582,11614,01.184,553
2023-09-01T08:44:20,42.805,6.029,CST-1368DR,4184,4581,11611,01.185,552
2023-09-01T08:47:21,42.805,6.029,CST-1368DR,4184,4587,11627,01.180,552
2023-09-01T08:50:23,42.805,6.029,CST-1368DR,4184,4585,11620,01.182,552
2023-09-01T08:53:25,42.805,6.029,CST-1368DR,4184,4584,11618,01.183,552
2023-09-01T08:56:26,42.805,6.029,CST-1368DR,4184,4580,11608,01.186,553
2023-09-01T08:59:28,42.805,6.029,CST-1368DR,4184,4585,11622,01.182,553
2023-09-01T09:02:29,42.805,6.029,CST-1368DR,4184,4581,11610,01.186,552
2023-09-01T09:05:31,42.805,6.029,CST-1368DR,4184,4580,11607,01.187,552
2023-09-01T09:08:32,42.805,6.029,CST-1368DR,4184,4580,11608,01.186,552
2023-09-01T09:11:34,42.805,6.029,CST-1368DR,4184,4582,11614,01.184,553
2023-09-01T09:14:36,42.805,6.029,CST-1368DR,4184,4580,11608,01.186,552
2023-09-01T09:17:37,42.805,6.029,CST-1368DR,4184,4582,11614,01.184,552
2023-09-01T09:20:39,42.805,6.029,CST-1368DR,4184,4579,11605,01.187,552
2023-09-01T09:23:40,42.805,6.029,CST-1368DR,4184,4578,11602,01.188,552
2023-09-01T09:26:42,42.805,6.029,CST-1368DR,4184,4600,11660,01.169,553
2023-09-01T09:29:43,42.805,6.029,CST-1368DR,4184,4601,11661,01.168,552
2023-09-01T09:32:45,42.805,6.029,CST-1368DR,4184,4602,11664,01.167,552
2023-09-01T09:35:47,42.805,6.029,CST-1368DR,4184,4600,11659,01.169,553
2023-09-01T09:38:48,42.805,6.029,CST-1368DR,4184,4601,11662,01.168,552
2023-09-01T09:41:50,42.805,6.029,CST-1368DR,4184,4600,11659,01.169,553
2023-09-01T09:44:51,42.805,6.029,CST-1368DR,4184,4589,11631,01.178,552
2023-09-01T09:47:53,42.805,6.029,CST-1368DR,4184,4591,11635,01.177,552
2023-09-01T09:50:54,42.805,6.029,CST-1368DR,4184,4591,11636,01.177,552
2023-09-01T09:53:56,42.805,6.029,CST-1368DR,4184,4597,11652,01.171,553
2023-09-01T09:56:58,42.805,6.029,CST-1368DR,4184,4596,11650,01.172,552
2023-09-01T09:59:59,42.805,6.029,CST-1368DR,4184,4597,11651,01.172,552
2023-09-01T10:03:01,42.805,6.029,CST-1368DR,4184,4596,11650,01.172,553
2023-09-01T10:06:02,42.805,6.029,CST-1368DR,4184,4595,11647,01.173,553
2023-09-01T10:09:04,42.805,6.029,CST-1368DR,4184,4597,11651,01.172,553
2023-09-01T10:12:06,42.805,6.029,CST-1368DR,4184,4597,11651,01.172,552
2023-09-01T10:15:07,42.805,6.029,CST-1368DR,4184,4598,11654,01.171,552
2023-09-01T10:18:09,42.805,6.029,CST-1368DR,4184,4599,11656,01.170,552
2023-09-01T10:21:10,42.805,6.029,CST-1368DR,4184,4596,11650,01.172,552
2023-09-01T10:24:12,42.805,6.029,CST-1368DR,4184,4595,11646,01.173,552
2023-09-01T10:27:13,42.805,6.029,CST-1368DR,4184,4596,11649,01.172,552
2023-09-01T10:30:16,42.805,6.029,CST-1368DR,4184,4596,11649,01.172,552
2023-09-01T10:33:18,42.805,6.029,CST-1368DR,4184,4596,11649,01.172,552
2023-09-01T10:36:19,42.805,6.029,CST-1368DR,4184,4598,11653,01.171,553
2023-09-01T10:39:21,42.805,6.029,CST-1368DR,4184,4597,11652,01.171,552
2023-09-01T10:42:22,42.805,6.029,CST-1368DR,4184,4598,11654,01.171,552
2023-09-01T10:45:24,42.805,6.029,CST-1368DR,4184,4597,11652,01.171,552
2023-09-01T10:48:26,42.805,6.029,CST-1368DR,4184,4597,11651,01.172,552
2023-09-01T10:51:27,42.805,6.029,CST-1368DR,4184,4598,11654,01.171,552
2023-09-01T10:54:29,42.805,6.029,CST-1368DR,4184,4599,11656,01.170,552
2023-09-01T10:57:30,42.805,6.029,CST-1368DR,4184,4597,11652,01.171,552
2023-09-01T11:00:32,42.805,6.029,CST-1368DR,4184,4598,11653,01.171,553
2023-09-01T11:03:33,42.805,6.029,CST-1368DR,4184,4596,11649,01.172,553
2023-09-01T11:06:35,42.805,6.029,CST-1368DR,4184,4597,11652,01.171,552
2023-09-01T11:09:37,42.805,6.029,CST-1368DR,4184,4598,11654,01.171,553
2023-09-01T11:12:38,42.805,6.029,CST-1368DR,4184,4596,11650,01.172,553
2023-09-01T11:15:40,42.805,6.029,CST-1368DR,4184,4597,11651,01.172,553
2023-09-01T11:18:41,42.805,6.029,CST-1368DR,4184,4593,11640,01.175,552
2023-09-01T11:21:43,42.805,6.029,CST-1368DR,4184,4599,11656,01.170,552
2023-09-01T11:24:44,42.805,6.029,CST-1368DR,4184,4597,11652,01.171,553
2023-09-01T11:27:46,42.805,6.029,CST-1368DR,4184,4599,11656,01.170,552
2023-09-01T11:30:48,42.805,6.029,CST-1368DR,4184,4598,11654,01.171,553
2023-09-01T11:33:49,42.805,6.029,CST-1368DR,4184,4599,11656,01.170,552
2023-09-01T11:36:51,42.805,6.029,CST-1368DR,4184,4598,11655,01.170,553
2023-09-01T11:39:52,42.805,6.029,CST-1368DR,4184,4599,11656,01.170,552
2023-09-01T11:42:54,42.805,6.029,CST-1368DR,4184,4597,11652,01.171,553
2023-09-01T11:45:56,42.805,6.029,CST-1368DR,4184,4599,11657,01.170,552
2023-09-01T11:48:57,42.805,6.029,CST-1368DR,4184,4595,11647,01.173,552
2023-09-01T11:51:59,42.805,6.029,CST-1368DR,4184,4599,11657,01.170,552
2023-09-01T11:55:00,42.805,6.029,CST-1368DR,4184,4598,11653,01.171,552
2023-09-01T11:58:02,42.805,6.029,CST-1368DR,4184,4598,11653,01.171,553
2023-09-01T12:01:03,42.805,6.029,CST-1368DR,4184,4599,11656,01.170,552
2023-09-01T12:04:05,42.805,6.029,CST-1368DR,4184,4599,11656,01.170,552
2023-09-01T12:07:07,42.805,6.029,CST-1368DR,4184,4599,11656,01.170,553
2023-09-01T12:10:08,42.805,6.029,CST-1368DR,4184,4598,11654,01.171,553
2023-09-01T12:13:10,42.805,6.029,CST-1368DR,4184,4599,11656,01.170,552
2023-09-01T12:16:11,42.805,6.029,CST-1368DR,4184,4599,11656,01.170,552
2023-09-01T12:19:13,42.805,6.029,CST-1368DR,4184,4599,11658,01.169,553
2023-09-01T12:22:14,42.805,6.029,CST-1368DR,4184,4598,11654,01.171,552
2023-09-01T12:25:16,42.805,6.029,CST-1368DR,4184,4598,11654,01.171,552
2023-09-01T12:28:18,42.805,6.029,CST-1368DR,4184,4598,11655,01.170,553
2023-09-01T12:31:19,42.805,6.029,CST-1368DR,4184,4599,11656,01.170,552
2023-09-01T12:34:21,42.805,6.029,CST-1368DR,4184,4597,11652,01.171,552
2023-09-01T12:37:22,42.805,6.029,CST-1368DR,4184,4598,11655,01.170,553
2023-09-01T12:40:24,42.805,6.029,CST-1368DR,4184,4597,11652,01.171,553
2023-09-01T12:43:26,42.805,6.029,CST-1368DR,4184,4599,11656,01.170,552
2023-09-01T12:46:27,42.805,6.029,CST-1368DR,4184,4597,11652,01.171,553
2023-09-01T12:49:29,42.805,6.029,CST-1368DR,4184,4598,11654,01.171,553
2023-09-01T12:52:30,42.805,6.029,CST-1368DR,4184,4599,11657,01.170,552
2023-09-01T12:55:32,42.805,6.029,CST-1368DR,4184,4599,11656,01.170,553
2023-09-01T12:58:33,42.805,6.029,CST-1368DR,4184,4599,11658,01.169,553
2023-09-01T13:01:35,42.805,6.029,CST-1368DR,4184,4599,11656,01.170,552
2023-09-01T13:04:37,42.805,6.029,CST-1368DR,4184,4598,11654,01.171,552
2023-09-01T13:07:38,42.805,6.029,CST-1368DR,4184,4597,11652,01.171,553
2023-09-01T13:10:40,42.805,6.029,CST-1368DR,4184,4599,11657,01.170,553
2023-09-01T13:13:41,42.805,6.029,CST-1368DR,4184,4599,11657,01.170,552
2023-09-01T13:16:43,42.805,6.029,CST-1368DR,4184,4599,11658,01.169,552
2023-09-01T13:19:45,42.805,6.029,CST-1368DR,4184,4599,11657,01.170,552
2023-09-01T13:22:46,42.805,6.029,CST-1368DR,4184,4600,11659,01.169,553
2023-09-01T13:25:48,42.805,6.029,CST-1368DR,4184,4599,11657,01.170,553
2023-09-01T13:28:49,42.805,6.029,CST-1368DR,4184,4600,11659,01.169,552
2023-09-01T13:31:51,42.805,6.029,CST-1368DR,4184,4599,11656,01.170,553
2023-09-01T13:34:52,42.805,6.029,CST-1368DR,4184,4598,11654,01.171,552
2023-09-01T13:37:54,42.805,6.029,CST-1368DR,4184,4596,11649,01.172,552
2023-09-01T13:40:56,42.805,6.029,CST-1368DR,4184,4600,11659,01.169,553
2023-09-01T13:43:57,42.805,6.029,CST-1368DR,4184,4598,11654,01.171,553
2023-09-01T13:46:59,42.805,6.029,CST-1368DR,4184,4597,11652,01.171,552
2023-09-01T13:50:00,42.805,6.029,CST-1368DR,4184,4597,11651,01.172,552
2023-09-01T13:53:02,42.805,6.029,CST-1368DR,4184,4598,11655,01.170,552
2023-09-01T13:56:03,42.805,6.029,CST-1368DR,4184,4597,11651,01.172,552
2023-09-01T13:59:05,42.805,6.029,CST-1368DR,4184,4598,11654,01.171,552
2023-09-01T14:02:07,42.805,6.029,CST-1368DR,4184,4598,11653,01.171,553
2023-09-01T14:05:08,42.805,6.029,CST-1368DR,4184,4597,11652,01.171,553
2023-09-01T14:08:10,42.805,6.029,CST-1368DR,4184,4597,11651,01.172,552
2023-09-01T14:11:11,42.805,6.029,CST-1368DR,4184,4598,11653,01.171,552
2023-09-01T14:14:13,42.805,6.029,CST-1368DR,4184,4598,11654,01.171,552
2023-09-01T14:17:15,42.805,6.029,CST-1368DR,4184,4597,11651,01.172,553
2023-09-01T14:20:16,42.805,6.029,CST-1368DR,4184,4594,11644,01.174,552
2023-09-01T14:23:18,42.805,6.029,CST-1368DR,4184,4600,11659,01.169,552
2023-09-01T14:26:19,42.805,6.029,CST-1368DR,4184,4600,11659,01.169,552
2023-09-01T14:29:21,42.805,6.029,CST-1368DR,4184,4599,11658,01.169,552
2023-09-01T14:32:22,42.805,6.029,CST-1368DR,4184,4600,11659,01.169,552
2023-09-01T14:35:24,42.805,6.029,CST-1368DR,4184,4593,11642,01.175,553
2023-09-01T14:38:26,42.805,6.029,CST-1368DR,4184,4599,11656,01.170,552
2023-09-01T14:41:27,42.805,6.029,CST-1368DR,4184,4599,11657,01.170,553
2023-09-01T14:44:29,42.805,6.029,CST-1368DR,4184,4601,11663,01.167,553
2023-09-01T14:47:30,42.805,6.029,CST-1368DR,4184,4601,11661,01.168,553
2023-09-01T14:50:32,42.805,6.029,CST-1368DR,4184,4600,11659,01.169,552
2023-09-01T14:53:33,42.805,6.029,CST-1368DR,4184,4599,11657,01.170,553
2023-09-01T14:56:35,42.805,6.029,CST-1368DR,4184,4601,11663,01.167,552
2023-09-01T14:59:37,42.805,6.029,CST-1368DR,4184,4601,11661,01.168,552
2023-09-01T15:02:38,42.805,6.029,CST-1368DR,4184,4601,11661,01.168,553
2023-09-01T15:05:40,42.805,6.029,CST-1368DR,4184,4601,11661,01.168,552
2023-09-01T15:08:41,42.805,6.029,CST-1368DR,4184,4601,11661,01.168,552
2023-09-01T15:11:43,42.805,6.029,CST-1368DR,4184,4600,11659,01.169,552
2023-09-01T15:14:44,42.805,6.029,CST-1368DR,4184,4599,11658,01.169,552
2023-09-01T15:17:46,42.805,6.029,CST-1368DR,4184,4599,11658,01.169,553
2023-09-01T15:20:48,42.805,6.029,CST-1368DR,4184,4600,11659,01.169,553
2023-09-01T15:23:49,42.805,6.029,CST-1368DR,4184,4598,11654,01.171,552
2023-09-01T15:26:51,42.805,6.029,CST-1368DR,4184,4600,11660,01.169,553
2023-09-01T15:29:52,42.805,6.029,CST-1368DR,4184,4601,11661,01.168,552
2023-09-01T15:32:54,42.805,6.029,CST-1368DR,4184,4599,11658,01.169,553
2023-09-01T15:35:56,42.805,6.029,CST-1368DR,4184,4600,11659,01.169,552
2023-09-01T15:38:57,42.805,6.029,CST-1368DR,4184,4599,11658,01.169,552
2023-09-01T15:41:59,42.805,6.029,CST-1368DR,4184,4601,11661,01.168,552
2023-09-01T15:45:00,42.805,6.029,CST-1368DR,4184,4600,11660,01.169,552
2023-09-01T15:48:02,42.805,6.029,CST-1368DR,4184,4600,11659,01.169,552
2023-09-01T15:51:03,42.805,6.029,CST-1368DR,4184,4599,11658,01.169,553
2023-09-01T15:54:05,42.805,6.029,CST-1368DR,4184,4600,11660,01.169,553
2023-09-01T15:57:07,42.805,6.029,CST-1368DR,4184,4600,11660,01.169,552
2023-09-01T16:00:08,42.805,6.029,CST-1368DR,4184,4601,11661,01.168,552
2023-09-01T16:03:10,42.805,6.029,CST-1368DR,4184,4600,11660,01.169,552
2023-09-01T16:06:11,42.805,6.029,CST-1368DR,4184,4601,11661,01.168,552
2023-09-01T16:09:13,42.805,6.029,CST-1368DR,4184,4600,11660,01.169,553
2023-09-01T16:12:14,42.805,6.029,CST-1368DR,4184,4600,11659,01.169,553
2023-09-01T16:15:16,42.805,6.029,CST-1368DR,4184,4601,11661,01.168,553
2023-09-01T16:18:18,42.805,6.029,CST-1368DR,4184,4601,11661,01.168,552
2023-09-01T16:21:19,42.805,6.029,CST-1368DR,4184,4600,11660,01.169,553
2023-09-01T16:24:21,42.805,6.029,CST-1368DR,4184,4599,11657,01.170,552
2023-09-01T16:27:22,42.805,6.029,CST-1368DR,4184,4601,11661,01.168,552
2023-09-01T16:30:25,42.805,6.029,CST-1368DR,4184,4601,11661,01.168,553
2023-09-01T16:33:27,42.805,6.029,CST-1368DR,4184,4600,11659,01.169,553
2023-09-01T16:36:29,42.805,6.029,CST-1368DR,4184,4600,11659,01.169,552